DFSRT EDDN-LIMJ

Flight info

Callsign DFSRT
Flight time 1h 41m
Altitude 26000
Route BOLSI1C BOLSI DCT EVTAT/N0272F250 DCT LUSIL DCT ROBAS DCT GOLAS
Aircraft PC12/L-SDFGRWY/S

Departure

Time 2026-04-29 08:02
Airport Nuremberg Airport (EDDN)

Arrival

Time 2026-04-29 09:44
Airport Genoa Cristoforo Colombo Airport (LIMJ)
Time Latitude Longitude Altitude Speed Heading
2026-04-29 07:53 49.49546 11.07139 1022 ft 0 kts
2026-04-29 07:59 49.49578 11.07157 1022 ft 6 kts 54°
2026-04-29 07:59 49.49607 11.07212 1022 ft 7 kts 15°
2026-04-29 07:59 49.49667 11.07225 1020 ft 8 kts
2026-04-29 08:00 49.49723 11.07216 1018 ft 10 kts 322°
2026-04-29 08:00 49.49755 11.07099 1017 ft 14 kts 310°
2026-04-29 08:00 49.49838 11.07036 1017 ft 0 kts 335°
2026-04-29 08:01 49.49839 11.07035 1017 ft 2 kts 335°
2026-04-29 08:01 49.49893 11.07009 1019 ft 10 kts 358°
2026-04-29 08:01 49.49942 11.07094 1020 ft 16 kts 97°
2026-04-29 08:01 49.49919 11.07336 1021 ft 38 kts 97°
2026-04-29 08:02 49.49855 11.07936 1026 ft 74 kts 98°
2026-04-29 08:02 49.49771 11.08796 1144 ft 85 kts 96°
2026-04-29 08:02 49.49704 11.09694 1448 ft 83 kts 95°
2026-04-29 08:02 49.49581 11.10644 1675 ft 99 kts 100°
2026-04-29 08:03 49.49416 11.11735 1909 ft 114 kts 96°
2026-04-29 08:03 49.49324 11.13098 2182 ft 128 kts 94°
2026-04-29 08:03 49.49212 11.14425 2753 ft 124 kts 97°
2026-04-29 08:03 49.49087 11.15730 3293 ft 123 kts 97°
2026-04-29 08:04 49.48960 11.17022 3800 ft 122 kts 98°
2026-04-29 08:04 49.48828 11.18368 4094 ft 136 kts 98°
2026-04-29 08:04 49.48681 11.19837 4496 ft 138 kts 98°
2026-04-29 08:04 49.48535 11.21295 4989 ft 141 kts 98°
2026-04-29 08:05 49.48380 11.22806 5410 ft 145 kts 101°
2026-04-29 08:05 49.47901 11.24179 5855 ft 152 kts 129°
2026-04-29 08:05 49.46964 11.24999 6236 ft 162 kts 163°
2026-04-29 08:05 49.45813 11.25013 6604 ft 168 kts 183°
2026-04-29 08:06 49.44643 11.24861 6993 ft 170 kts 183°
2026-04-29 08:06 49.43453 11.24716 7337 ft 174 kts 181°
2026-04-29 08:06 49.42234 11.24574 7711 ft 176 kts 182°
2026-04-29 08:06 49.41017 11.24430 8123 ft 175 kts 183°
2026-04-29 08:07 49.39783 11.24287 8388 ft 184 kts 182°
2026-04-29 08:07 49.38921 11.24186 8655 ft 183 kts 183°
2026-04-29 08:07 49.37642 11.24036 9003 ft 187 kts 184°
2026-04-29 08:07 49.35958 11.23839 9602 ft 184 kts 182°
2026-04-29 08:08 49.35083 11.23737 9838 ft 186 kts 183°
2026-04-29 08:08 49.33794 11.23586 10237 ft 188 kts 182°
2026-04-29 08:08 49.32498 11.23248 10490 ft 195 kts 202°
2026-04-29 08:08 49.31369 11.22140 10891 ft 190 kts 228°
2026-04-29 08:09 49.30639 11.20489 11276 ft 185 kts 253°
2026-04-29 08:09 49.30292 11.18604 11631 ft 183 kts 259°
2026-04-29 08:09 49.29982 11.16720 12011 ft 182 kts 259°
2026-04-29 08:09 49.29669 11.14821 12347 ft 185 kts 261°
2026-04-29 08:10 49.29356 11.12911 12766 ft 184 kts 260°
2026-04-29 08:10 49.29045 11.11019 13136 ft 186 kts 260°
2026-04-29 08:10 49.28729 11.09102 13521 ft 185 kts 259°
2026-04-29 08:10 49.28411 11.07189 13887 ft 185 kts 259°
2026-04-29 08:11 49.28092 11.05265 14218 ft 186 kts 261°
2026-04-29 08:11 49.27775 11.03337 14537 ft 187 kts 261°
2026-04-29 08:11 49.27459 11.01427 14871 ft 187 kts 259°
2026-04-29 08:11 49.27137 10.99502 15214 ft 187 kts 260°
2026-04-29 08:12 49.26817 10.97570 15542 ft 187 kts 262°
2026-04-29 08:12 49.26497 10.95638 15875 ft 187 kts 261°
2026-04-29 08:12 49.26175 10.93707 16195 ft 187 kts 261°
2026-04-29 08:12 49.25851 10.91765 16535 ft 188 kts 261°
2026-04-29 08:13 49.25526 10.89819 16844 ft 189 kts 260°
2026-04-29 08:13 49.25199 10.87865 17173 ft 190 kts 261°
2026-04-29 08:13 49.24872 10.85910 17495 ft 190 kts 260°
2026-04-29 08:13 49.24543 10.83947 17810 ft 190 kts 260°
2026-04-29 08:14 49.24212 10.81980 18129 ft 191 kts 261°
2026-04-29 08:14 49.23881 10.80007 18449 ft 192 kts 261°
2026-04-29 08:14 49.23505 10.78072 18709 ft 194 kts 249°
2026-04-29 08:14 49.22685 10.76394 18984 ft 201 kts 226°
2026-04-29 08:15 49.21451 10.75336 19256 ft 208 kts 200°
2026-04-29 08:15 49.20024 10.74857 19502 ft 211 kts 195°
2026-04-29 08:15 49.18585 10.74417 19750 ft 211 kts 196°
2026-04-29 08:15 49.17142 10.73967 19982 ft 211 kts 196°
2026-04-29 08:16 49.15700 10.73513 20193 ft 212 kts 196°
2026-04-29 08:16 49.14250 10.73058 20400 ft 212 kts 197°
2026-04-29 08:16 49.12802 10.72605 20598 ft 213 kts 197°
2026-04-29 08:16 49.11350 10.72152 20797 ft 213 kts 197°
2026-04-29 08:17 49.09915 10.71704 21006 ft 213 kts 197°
2026-04-29 08:17 49.08459 10.71250 21212 ft 214 kts 197°
2026-04-29 08:17 49.07000 10.70794 21415 ft 214 kts 197°
2026-04-29 08:17 49.05540 10.70339 21620 ft 214 kts 197°
2026-04-29 08:18 49.04073 10.69882 21818 ft 215 kts 197°
2026-04-29 08:18 49.02609 10.69427 22011 ft 215 kts 199°
2026-04-29 08:18 49.01145 10.68971 22245 ft 214 kts 199°
2026-04-29 08:18 48.99683 10.68516 22453 ft 215 kts 199°
2026-04-29 08:19 48.98217 10.68060 22646 ft 215 kts 199°
2026-04-29 08:19 48.96749 10.67604 22844 ft 215 kts 199°
2026-04-29 08:19 48.95277 10.67147 23043 ft 216 kts 199°
2026-04-29 08:19 48.93819 10.66695 23235 ft 216 kts 199°
2026-04-29 08:20 48.92341 10.66237 23435 ft 217 kts 200°
2026-04-29 08:20 48.90862 10.65779 23627 ft 217 kts 200°
2026-04-29 08:20 48.89378 10.65319 23816 ft 217 kts 200°
2026-04-29 08:20 48.87893 10.64860 23975 ft 218 kts 200°
2026-04-29 08:21 48.86406 10.64400 24124 ft 218 kts 200°
2026-04-29 08:21 48.84916 10.63939 24277 ft 219 kts 200°
2026-04-29 08:21 48.83422 10.63478 24430 ft 219 kts 200°
2026-04-29 08:21 48.81923 10.63014 24560 ft 220 kts 200°
2026-04-29 08:22 48.80434 10.62557 24719 ft 219 kts 201°
2026-04-29 08:22 48.78943 10.62098 24891 ft 219 kts 201°
2026-04-29 08:22 48.77443 10.61634 25044 ft 220 kts 201°
2026-04-29 08:22 48.75940 10.61170 25188 ft 220 kts 201°
2026-04-29 08:23 48.74433 10.60707 25340 ft 221 kts 201°
2026-04-29 08:23 48.72925 10.60244 25489 ft 222 kts 201°
2026-04-29 08:23 48.71412 10.59778 25639 ft 222 kts 202°
2026-04-29 08:23 48.69914 10.59318 25782 ft 223 kts 202°
2026-04-29 08:24 48.68393 10.58851 25923 ft 223 kts 202°
2026-04-29 08:24 48.66869 10.58384 26081 ft 224 kts 202°
2026-04-29 08:24 48.65342 10.57915 26200 ft 226 kts 202°
2026-04-29 08:24 48.63775 10.57430 26201 ft 233 kts 202°
2026-04-29 08:25 48.62167 10.56936 26206 ft 239 kts 201°
2026-04-29 08:25 48.60525 10.56435 26208 ft 243 kts 201°
2026-04-29 08:25 48.58852 10.55925 26190 ft 246 kts 201°
2026-04-29 08:25 48.57161 10.55409 26195 ft 249 kts 201°
2026-04-29 08:26 48.55449 10.54886 26198 ft 251 kts 201°
2026-04-29 08:26 48.53730 10.54361 26198 ft 253 kts 200°
2026-04-29 08:26 48.52022 10.53840 26199 ft 255 kts 200°
2026-04-29 08:26 48.50278 10.53309 26204 ft 256 kts 200°
2026-04-29 08:27 48.48525 10.52775 26204 ft 258 kts 200°
2026-04-29 08:27 48.46761 10.52238 26203 ft 259 kts 200°
2026-04-29 08:27 48.44996 10.51702 26204 ft 259 kts 200°
2026-04-29 08:27 48.43225 10.51163 26204 ft 260 kts 200°
2026-04-29 08:28 48.41449 10.50624 26203 ft 260 kts 200°
2026-04-29 08:28 48.39670 10.50085 26202 ft 261 kts 200°
2026-04-29 08:28 48.37890 10.49545 26203 ft 261 kts 200°
2026-04-29 08:28 48.36110 10.49006 26203 ft 261 kts 200°
2026-04-29 08:29 48.34329 10.48466 26191 ft 261 kts 200°
2026-04-29 08:29 48.32546 10.47927 26190 ft 261 kts 200°
2026-04-29 08:29 48.30764 10.47388 26191 ft 261 kts 200°
2026-04-29 08:29 48.28981 10.46849 26191 ft 262 kts 200°
2026-04-29 08:30 48.27218 10.46317 26191 ft 262 kts 200°
2026-04-29 08:30 48.23641 10.45238 26189 ft 262 kts 200°
2026-04-29 08:30 48.21847 10.44697 26189 ft 263 kts 200°
2026-04-29 08:31 48.20052 10.44157 26192 ft 263 kts 200°
2026-04-29 08:31 48.18254 10.43616 26199 ft 264 kts 200°
2026-04-29 08:31 48.16453 10.43075 26185 ft 264 kts 200°
2026-04-29 08:31 48.14655 10.42535 26183 ft 264 kts 200°
2026-04-29 08:32 48.12857 10.41995 26182 ft 264 kts 200°
2026-04-29 08:32 48.11059 10.41455 26181 ft 264 kts 200°
2026-04-29 08:32 48.09259 10.40916 26175 ft 264 kts 200°
2026-04-29 08:32 48.07461 10.40377 26174 ft 263 kts 200°
2026-04-29 08:33 48.05664 10.39839 26174 ft 263 kts 200°
2026-04-29 08:33 48.03893 10.39310 26173 ft 263 kts 200°
2026-04-29 08:33 48.02101 10.38774 26171 ft 263 kts 200°
2026-04-29 08:33 48.00309 10.38239 26168 ft 263 kts 200°
2026-04-29 08:34 47.98512 10.37702 26167 ft 263 kts 200°
2026-04-29 08:34 47.96719 10.37167 26146 ft 263 kts 200°
2026-04-29 08:34 47.94930 10.36635 26167 ft 261 kts 200°
2026-04-29 08:34 47.93149 10.36104 26170 ft 261 kts 200°
2026-04-29 08:35 47.91367 10.35572 26166 ft 261 kts 200°
2026-04-29 08:35 47.89612 10.35051 26166 ft 261 kts 200°
2026-04-29 08:35 47.87901 10.34324 26163 ft 248 kts 216°
2026-04-29 08:35 47.86694 10.32657 26178 ft 232 kts 245°
2026-04-29 08:36 47.86303 10.30420 26193 ft 223 kts 274°
2026-04-29 08:36 47.86689 10.28195 26192 ft 224 kts 291°
2026-04-29 08:36 47.87568 10.26265 26189 ft 229 kts 310°
2026-04-29 08:36 47.88892 10.24890 26191 ft 233 kts 321°
2026-04-29 08:37 47.89950 10.23189 26199 ft 222 kts 292°
2026-04-29 08:37 47.90160 10.20958 26199 ft 223 kts 262°
2026-04-29 08:37 47.89447 10.18876 26200 ft 235 kts 232°
2026-04-29 08:37 47.88006 10.17590 26195 ft 252 kts 206°
2026-04-29 08:38 47.86218 10.17305 26194 ft 267 kts 182°
2026-04-29 08:38 47.84387 10.17691 26186 ft 269 kts 179°
2026-04-29 08:38 47.82540 10.17919 26185 ft 264 kts 187°
2026-04-29 08:38 47.80711 10.17823 26173 ft 262 kts 192°
2026-04-29 08:39 47.78891 10.17669 26174 ft 263 kts 191°
2026-04-29 08:39 47.77054 10.17595 26149 ft 265 kts 189°
2026-04-29 08:39 47.75202 10.17552 26153 ft 266 kts 189°
2026-04-29 08:39 47.73348 10.17493 26152 ft 266 kts 189°
2026-04-29 08:40 47.71495 10.17422 26158 ft 266 kts 189°
2026-04-29 08:40 47.69638 10.17353 26156 ft 267 kts 189°
2026-04-29 08:40 47.67777 10.17288 26148 ft 267 kts 189°
2026-04-29 08:40 47.65940 10.17224 26146 ft 267 kts 189°
2026-04-29 08:41 47.64083 10.17159 26148 ft 267 kts 189°
2026-04-29 08:41 47.62218 10.17092 26149 ft 268 kts 189°
2026-04-29 08:41 47.60354 10.17026 26144 ft 267 kts 189°
2026-04-29 08:41 47.58491 10.16961 26142 ft 267 kts 189°
2026-04-29 08:42 47.56631 10.16895 26141 ft 267 kts 189°
2026-04-29 08:42 47.54773 10.16830 26142 ft 267 kts 189°
2026-04-29 08:42 47.52911 10.16763 26140 ft 267 kts 189°
2026-04-29 08:42 47.51049 10.16698 26135 ft 267 kts 189°
2026-04-29 08:43 47.49187 10.16632 26143 ft 268 kts 189°
2026-04-29 08:43 47.47346 10.16567 26139 ft 268 kts 189°
2026-04-29 08:43 47.45484 10.16502 26140 ft 268 kts 189°
2026-04-29 08:43 47.43620 10.16437 26142 ft 267 kts 189°
2026-04-29 08:44 47.41757 10.16371 26140 ft 268 kts 189°
2026-04-29 08:44 47.39890 10.16305 26144 ft 268 kts 189°
2026-04-29 08:44 47.38021 10.16240 26141 ft 268 kts 189°
2026-04-29 08:44 47.36180 10.16176 26143 ft 269 kts 189°
2026-04-29 08:45 47.34308 10.16110 26136 ft 269 kts 189°
2026-04-29 08:45 47.32433 10.16044 26135 ft 270 kts 189°
2026-04-29 08:45 47.30544 10.15977 26146 ft 272 kts 189°
2026-04-29 08:45 47.28633 10.15910 26148 ft 275 kts 188°
2026-04-29 08:46 47.26717 10.15844 26144 ft 275 kts 189°
2026-04-29 08:46 47.24798 10.15778 26146 ft 275 kts 188°
2026-04-29 08:46 47.22879 10.15711 26141 ft 276 kts 189°
2026-04-29 08:46 47.20961 10.15644 26147 ft 275 kts 188°
2026-04-29 08:47 47.19043 10.15577 26147 ft 276 kts 188°
2026-04-29 08:47 47.17151 10.15511 26147 ft 274 kts 189°
2026-04-29 08:47 47.15251 10.15447 26150 ft 273 kts 189°
2026-04-29 08:47 47.13347 10.15380 26147 ft 273 kts 188°
2026-04-29 08:48 47.11449 10.15313 26153 ft 273 kts 188°
2026-04-29 08:48 47.09546 10.15247 26148 ft 273 kts 188°
2026-04-29 08:48 47.07651 10.15183 26147 ft 272 kts 188°
2026-04-29 08:48 47.05757 10.15117 26147 ft 272 kts 188°
2026-04-29 08:49 47.03889 10.15052 26148 ft 271 kts 188°
2026-04-29 08:49 47.01998 10.14986 26148 ft 271 kts 188°
2026-04-29 08:49 47.00107 10.14921 26148 ft 272 kts 188°
2026-04-29 08:49 46.98211 10.14855 26148 ft 272 kts 188°
2026-04-29 08:50 46.96316 10.14790 26142 ft 272 kts 188°
2026-04-29 08:50 46.94436 10.14727 26152 ft 269 kts 188°
2026-04-29 08:50 46.92554 10.14661 26141 ft 270 kts 188°
2026-04-29 08:50 46.90670 10.14594 26137 ft 271 kts 188°
2026-04-29 08:51 46.88786 10.14530 26142 ft 272 kts 188°
2026-04-29 08:51 46.86895 10.14465 26141 ft 271 kts 188°
2026-04-29 08:51 46.85008 10.14401 26133 ft 270 kts 188°
2026-04-29 08:51 46.83152 10.14337 26138 ft 270 kts 188°
2026-04-29 08:52 46.81268 10.14271 26139 ft 271 kts 188°
2026-04-29 08:52 46.79380 10.14207 26144 ft 271 kts 188°
2026-04-29 08:52 46.77502 10.14144 26143 ft 269 kts 188°
2026-04-29 08:52 46.75626 10.14080 26143 ft 269 kts 188°
2026-04-29 08:53 46.73743 10.14014 26146 ft 271 kts 188°
2026-04-29 08:53 46.71856 10.13949 26142 ft 272 kts 188°
2026-04-29 08:53 46.69969 10.13886 26141 ft 270 kts 188°
2026-04-29 08:53 46.68088 10.13823 26136 ft 269 kts 188°
2026-04-29 08:54 46.66216 10.13758 26141 ft 267 kts 188°
2026-04-29 08:54 46.64379 10.13695 26149 ft 268 kts 188°
2026-04-29 08:54 46.62510 10.13630 26151 ft 270 kts 188°
2026-04-29 08:54 46.60628 10.13566 26150 ft 270 kts 188°
2026-04-29 08:55 46.58748 10.13503 26147 ft 270 kts 188°
2026-04-29 08:55 46.56871 10.13439 26146 ft 270 kts 188°
2026-04-29 08:55 46.54994 10.13376 26150 ft 270 kts 188°
2026-04-29 08:55 46.53124 10.13312 26150 ft 268 kts 188°
2026-04-29 08:56 46.51252 10.13248 26138 ft 269 kts 187°
2026-04-29 08:56 46.49376 10.13184 26138 ft 270 kts 187°
2026-04-29 08:56 46.47496 10.13121 26138 ft 270 kts 187°
2026-04-29 08:56 46.45626 10.13058 26140 ft 268 kts 187°
2026-04-29 08:57 46.43756 10.12995 26141 ft 269 kts 187°
2026-04-29 08:57 46.42520 10.12952 26136 ft 269 kts 187°
2026-04-29 08:57 46.40025 10.12869 26116 ft 267 kts 187°
2026-04-29 08:57 46.38794 10.12828 26119 ft 267 kts 187°
2026-04-29 08:58 46.36932 10.12764 26119 ft 268 kts 187°
2026-04-29 08:58 46.35070 10.12702 26111 ft 267 kts 187°
2026-04-29 08:58 46.32618 10.12618 26117 ft 265 kts 187°
2026-04-29 08:58 46.31369 10.12575 26115 ft 265 kts 187°
2026-04-29 08:59 46.29528 10.12513 26118 ft 266 kts 187°
2026-04-29 08:59 46.27676 10.12450 26117 ft 266 kts 187°
2026-04-29 08:59 46.25828 10.12388 26114 ft 266 kts 187°
2026-04-29 08:59 46.23981 10.12327 26115 ft 264 kts 188°
2026-04-29 09:00 46.22142 10.12266 26121 ft 264 kts 188°
2026-04-29 09:00 46.20328 10.12205 26115 ft 263 kts 188°
2026-04-29 09:00 46.18494 10.12143 26109 ft 263 kts 187°
2026-04-29 09:00 46.16655 10.12081 26112 ft 264 kts 187°
2026-04-29 09:01 46.14814 10.12019 26113 ft 265 kts 187°
2026-04-29 09:01 46.12968 10.11957 26112 ft 264 kts 188°
2026-04-29 09:01 46.11133 10.11897 26099 ft 264 kts 186°
2026-04-29 09:01 46.09294 10.11835 26099 ft 264 kts 186°
2026-04-29 09:02 46.07454 10.11772 26097 ft 264 kts 186°
2026-04-29 09:02 46.05613 10.11711 26104 ft 265 kts 186°
2026-04-29 09:02 46.03808 10.11427 26093 ft 258 kts 200°
2026-04-29 09:02 46.02087 10.10647 25940 ft 261 kts 203°
2026-04-29 09:03 46.00371 10.09834 25766 ft 264 kts 203°
2026-04-29 09:03 45.98614 10.09013 25602 ft 267 kts 203°
2026-04-29 09:03 45.96841 10.08190 25431 ft 268 kts 202°
2026-04-29 09:03 45.95059 10.07361 25259 ft 269 kts 202°
2026-04-29 09:04 45.93281 10.06533 25113 ft 267 kts 202°
2026-04-29 09:04 45.91537 10.05724 25104 ft 261 kts 202°
2026-04-29 09:04 45.89816 10.04924 25103 ft 258 kts 202°
2026-04-29 09:04 45.88119 10.04135 25097 ft 255 kts 202°
2026-04-29 09:05 45.86431 10.03351 25090 ft 254 kts 202°
2026-04-29 09:05 45.84770 10.02580 25096 ft 253 kts 202°
2026-04-29 09:05 45.83094 10.01804 25095 ft 252 kts 202°
2026-04-29 09:05 45.81432 10.01033 25091 ft 250 kts 202°
2026-04-29 09:06 45.79782 10.00268 25090 ft 248 kts 203°
2026-04-29 09:06 45.78139 9.99508 25094 ft 248 kts 202°
2026-04-29 09:06 45.76516 9.98758 25091 ft 248 kts 202°
2026-04-29 09:06 45.74876 9.98000 25091 ft 248 kts 202°
2026-04-29 09:07 45.73233 9.97241 25077 ft 248 kts 202°
2026-04-29 09:07 45.71589 9.96483 25089 ft 248 kts 202°
2026-04-29 09:07 45.69938 9.95721 25097 ft 250 kts 202°
2026-04-29 09:07 45.68278 9.94954 25097 ft 251 kts 202°
2026-04-29 09:08 45.66628 9.94196 25095 ft 251 kts 202°
2026-04-29 09:08 45.64964 9.93431 25095 ft 251 kts 202°
2026-04-29 09:08 45.63296 9.92662 25096 ft 252 kts 202°
2026-04-29 09:08 45.61626 9.91894 25096 ft 252 kts 202°
2026-04-29 09:09 45.59955 9.91126 25098 ft 252 kts 202°
2026-04-29 09:09 45.58286 9.90360 25098 ft 252 kts 202°
2026-04-29 09:09 45.56610 9.89590 25096 ft 253 kts 202°
2026-04-29 09:09 45.54933 9.88821 25096 ft 253 kts 202°
2026-04-29 09:10 45.53252 9.88051 25090 ft 253 kts 202°
2026-04-29 09:10 45.51593 9.87291 25090 ft 253 kts 202°
2026-04-29 09:10 45.49917 9.86523 25087 ft 253 kts 202°
2026-04-29 09:10 45.48239 9.85755 25086 ft 253 kts 202°
2026-04-29 09:11 45.46562 9.84989 25087 ft 253 kts 202°
2026-04-29 09:11 45.44886 9.84223 25086 ft 253 kts 202°
2026-04-29 09:11 45.43208 9.83456 25086 ft 253 kts 202°
2026-04-29 09:11 45.41535 9.82693 25103 ft 253 kts 202°
2026-04-29 09:12 45.39877 9.81936 25102 ft 253 kts 202°
2026-04-29 09:12 45.38200 9.81172 25100 ft 253 kts 202°
2026-04-29 09:12 45.36526 9.80409 25098 ft 253 kts 202°
2026-04-29 09:12 45.34847 9.79645 25095 ft 253 kts 202°
2026-04-29 09:13 45.33169 9.78882 25091 ft 252 kts 202°
2026-04-29 09:13 45.31497 9.78121 25088 ft 252 kts 202°
2026-04-29 09:13 45.29823 9.77360 25086 ft 252 kts 202°
2026-04-29 09:13 45.28150 9.76601 25083 ft 252 kts 202°
2026-04-29 09:14 45.26479 9.75842 25080 ft 252 kts 202°
2026-04-29 09:14 45.24827 9.75093 25078 ft 252 kts 202°
2026-04-29 09:14 45.23156 9.74336 25076 ft 252 kts 202°
2026-04-29 09:14 45.21480 9.73576 25034 ft 255 kts 202°
2026-04-29 09:15 45.19758 9.72799 24697 ft 263 kts 199°
2026-04-29 09:15 45.17935 9.72387 24375 ft 267 kts 189°
2026-04-29 09:15 45.16094 9.72133 24041 ft 262 kts 189°
2026-04-29 09:15 45.14287 9.71869 23720 ft 259 kts 190°
2026-04-29 09:16 45.12504 9.71599 23340 ft 256 kts 190°
2026-04-29 09:16 45.10735 9.71334 22957 ft 253 kts 190°
2026-04-29 09:16 45.08995 9.71076 22581 ft 250 kts 189°
2026-04-29 09:16 45.07274 9.70821 22210 ft 248 kts 189°
2026-04-29 09:17 45.05565 9.70568 21844 ft 246 kts 189°
2026-04-29 09:17 45.03883 9.70318 21488 ft 246 kts 189°
2026-04-29 09:17 45.02169 9.70064 21131 ft 248 kts 189°
2026-04-29 09:17 45.00442 9.69809 20778 ft 250 kts 189°
2026-04-29 09:18 44.98708 9.69552 20425 ft 251 kts 189°
2026-04-29 09:18 44.96968 9.69295 20075 ft 251 kts 189°
2026-04-29 09:18 44.95236 9.69039 19736 ft 251 kts 189°
2026-04-29 09:18 44.93526 9.68786 19402 ft 250 kts 189°
2026-04-29 09:19 44.91792 9.68530 19071 ft 249 kts 189°
2026-04-29 09:19 44.90063 9.68275 18738 ft 249 kts 189°
2026-04-29 09:19 44.88342 9.68022 18414 ft 248 kts 189°
2026-04-29 09:19 44.86626 9.67769 18046 ft 247 kts 189°
2026-04-29 09:20 44.84915 9.67517 17673 ft 246 kts 189°
2026-04-29 09:20 44.83231 9.67269 17308 ft 246 kts 189°
2026-04-29 09:20 44.81526 9.67019 16946 ft 246 kts 188°
2026-04-29 09:20 44.79827 9.66769 16586 ft 245 kts 188°
2026-04-29 09:21 44.78133 9.66521 16230 ft 244 kts 188°
2026-04-29 09:21 44.76445 9.66273 15879 ft 244 kts 188°
2026-04-29 09:21 44.74738 9.66022 15534 ft 250 kts 188°
2026-04-29 09:21 44.72987 9.65764 15193 ft 256 kts 188°
2026-04-29 09:22 44.71206 9.65504 14857 ft 259 kts 188°
2026-04-29 09:22 44.69405 9.65240 14523 ft 261 kts 188°
2026-04-29 09:22 44.67591 9.64975 14189 ft 263 kts 187°
2026-04-29 09:22 44.65771 9.64709 13858 ft 263 kts 187°
2026-04-29 09:23 44.63974 9.64446 13492 ft 263 kts 187°
2026-04-29 09:23 44.62158 9.64181 13125 ft 262 kts 187°
2026-04-29 09:23 44.60346 9.63915 12755 ft 262 kts 187°
2026-04-29 09:23 44.58526 9.63649 12400 ft 262 kts 187°
2026-04-29 09:24 44.56717 9.63385 12047 ft 261 kts 187°
2026-04-29 09:24 44.54909 9.63122 11696 ft 261 kts 187°
2026-04-29 09:24 44.53111 9.62859 11348 ft 260 kts 187°
2026-04-29 09:24 44.51306 9.62596 11001 ft 260 kts 187°
2026-04-29 09:25 44.49511 9.62335 10668 ft 259 kts 187°
2026-04-29 09:25 44.47716 9.62074 10332 ft 259 kts 186°
2026-04-29 09:25 44.45993 9.61649 10077 ft 250 kts 198°
2026-04-29 09:25 44.44470 9.60622 10070 ft 237 kts 213°
2026-04-29 09:26 44.43179 9.59257 10063 ft 229 kts 218°
2026-04-29 09:26 44.41924 9.57910 10064 ft 225 kts 217°
2026-04-29 09:26 44.40687 9.56584 10061 ft 222 kts 217°
2026-04-29 09:26 44.39469 9.55277 10060 ft 219 kts 217°
2026-04-29 09:27 44.38279 9.53999 10061 ft 217 kts 217°
2026-04-29 09:27 44.37084 9.52718 10053 ft 215 kts 217°
2026-04-29 09:27 44.35890 9.51439 10058 ft 218 kts 217°
2026-04-29 09:27 44.34670 9.50130 10056 ft 222 kts 218°
2026-04-29 09:28 44.33446 9.48818 10061 ft 221 kts 217°
2026-04-29 09:28 44.32223 9.47509 10061 ft 221 kts 217°
2026-04-29 09:28 44.31003 9.46207 10060 ft 220 kts 217°
2026-04-29 09:28 44.29771 9.44969 10064 ft 216 kts 209°
2026-04-29 09:29 44.28364 9.44295 10065 ft 214 kts 188°
2026-04-29 09:29 44.25529 9.45020 10074 ft 211 kts 149°
2026-04-29 09:29 44.24341 9.46211 10072 ft 209 kts 142°
2026-04-29 09:30 44.23082 9.47225 9901 ft 213 kts 161°
2026-04-29 09:30 44.21604 9.47525 9612 ft 216 kts 182°
2026-04-29 09:30 44.20183 9.47057 9566 ft 204 kts 203°
2026-04-29 09:30 44.19035 9.45994 9564 ft 194 kts 223°
2026-04-29 09:31 44.18199 9.44574 9555 ft 186 kts 232°
2026-04-29 09:31 44.17443 9.43181 9550 ft 179 kts 232°
2026-04-29 09:31 44.16700 9.41820 9558 ft 174 kts 232°
2026-04-29 09:31 44.16151 9.40352 9512 ft 171 kts 255°
2026-04-29 09:32 44.16104 9.38705 9470 ft 169 kts 280°
2026-04-29 09:32 44.16569 9.37145 9199 ft 185 kts 306°
2026-04-29 09:32 44.17555 9.35868 8850 ft 204 kts 323°
2026-04-29 09:32 44.18751 9.34636 8417 ft 221 kts 324°
2026-04-29 09:33 44.19990 9.33354 7887 ft 220 kts 323°
2026-04-29 09:33 44.21203 9.32077 7371 ft 217 kts 323°
2026-04-29 09:33 44.22389 9.30821 6862 ft 215 kts 323°
2026-04-29 09:33 44.23576 9.29565 6351 ft 213 kts 323°
2026-04-29 09:34 44.24744 9.28330 5983 ft 203 kts 323°
2026-04-29 09:34 44.25801 9.27210 5975 ft 179 kts 323°
2026-04-29 09:34 44.26736 9.26220 5967 ft 159 kts 324°
2026-04-29 09:34 44.27565 9.25325 5966 ft 143 kts 322°
2026-04-29 09:35 44.28300 9.24472 5968 ft 132 kts 321°
2026-04-29 09:35 44.29030 9.23624 5985 ft 143 kts 321°
2026-04-29 09:35 44.29804 9.22721 5990 ft 146 kts 322°
2026-04-29 09:35 44.30625 9.21756 5647 ft 168 kts 322°
2026-04-29 09:36 44.31573 9.20627 5138 ft 188 kts 321°
2026-04-29 09:36 44.32549 9.19461 4618 ft 178 kts 321°
2026-04-29 09:36 44.33432 9.18415 4481 ft 151 kts 317°
2026-04-29 09:36 44.33913 9.17213 4484 ft 138 kts 291°
2026-04-29 09:37 44.34221 9.15999 4492 ft 127 kts 289°
2026-04-29 09:37 44.34492 9.14844 4460 ft 125 kts 289°
2026-04-29 09:37 44.34770 9.13643 4297 ft 135 kts 289°
2026-04-29 09:37 44.35055 9.12374 4104 ft 142 kts 288°
2026-04-29 09:38 44.35348 9.11025 3901 ft 147 kts 287°
2026-04-29 09:38 44.35653 9.09642 3693 ft 150 kts 288°
2026-04-29 09:38 44.35959 9.08243 3479 ft 150 kts 288°
2026-04-29 09:38 44.36257 9.06896 3277 ft 139 kts 289°
2026-04-29 09:39 44.36533 9.05634 3088 ft 133 kts 289°
2026-04-29 09:39 44.36798 9.04420 2903 ft 129 kts 289°
2026-04-29 09:39 44.37061 9.03233 2728 ft 127 kts 289°
2026-04-29 09:39 44.37320 9.02050 2547 ft 127 kts 289°
2026-04-29 09:40 44.37574 9.00888 2364 ft 121 kts 290°
2026-04-29 09:40 44.37812 8.99809 2201 ft 115 kts 290°
2026-04-29 09:40 44.38042 8.98760 2045 ft 111 kts 290°
2026-04-29 09:40 44.38267 8.97735 1888 ft 109 kts 288°
2026-04-29 09:41 44.38486 8.96731 1740 ft 108 kts 288°
2026-04-29 09:41 44.38707 8.95735 1585 ft 105 kts 287°
2026-04-29 09:41 44.38918 8.94769 1442 ft 103 kts 287°
2026-04-29 09:41 44.39126 8.93817 1297 ft 102 kts 287°
2026-04-29 09:42 44.39336 8.92866 1153 ft 103 kts 287°
2026-04-29 09:42 44.39546 8.91907 1008 ft 103 kts 287°
2026-04-29 09:42 44.39770 8.91034 921 ft 88 kts 290°
2026-04-29 09:42 44.39996 8.90232 759 ft 88 kts 287°
2026-04-29 09:43 44.40192 8.89415 620 ft 88 kts 282°
2026-04-29 09:43 44.40352 8.88575 513 ft 89 kts 279°
2026-04-29 09:43 44.40512 8.87730 396 ft 90 kts 279°
2026-04-29 09:43 44.40673 8.86856 256 ft 94 kts 279°
2026-04-29 09:44 44.40848 8.85948 100 ft 97 kts 278°
2026-04-29 09:44 44.41015 8.85085 14 ft 84 kts 278°
2026-04-29 09:44 44.41129 8.84496 17 ft 41 kts 285°
2026-04-29 09:44 44.41226 8.84238 18 ft 26 kts 57°
2026-04-29 09:45 44.41256 8.84301 16 ft 0 kts 48°
2026-04-29 09:45 44.41256 8.84302 16 ft 1 kts 49°
2026-04-29 09:46 44.41278 8.84340 16 ft 8 kts 49°
2026-04-29 09:46 44.41319 8.84415 16 ft 11 kts 53°
2026-04-29 09:46 44.41367 8.84502 16 ft 12 kts 53°
2026-04-29 09:46 44.41420 8.84597 16 ft 13 kts 52°
2026-04-29 09:47 44.41456 8.84665 16 ft 13 kts 52°
2026-04-29 09:47 44.41534 8.84806 16 ft 14 kts 53°
2026-04-29 09:47 44.41598 8.84915 16 ft 15 kts 46°
2026-04-29 09:47 44.41667 8.85024 16 ft 15 kts 44°
2026-04-29 09:48 44.41737 8.85132 16 ft 15 kts 50°
2026-04-29 09:48 44.41777 8.85199 16 ft 6 kts 50°
2026-04-29 09:48 44.41766 8.85249 16 ft 7 kts 140°
2026-04-29 09:48 44.41757 8.85300 16 ft 7 kts 38°
2026-04-29 09:49 44.41769 8.85303 16 ft 0 kts 342°
2026-04-29 09:49 44.41773 8.85300 16 ft 2 kts 325°
2026-04-29 09:49 44.41778 8.85290 16 ft 1 kts 297°
2026-04-29 09:49 44.41781 8.85284 16 ft 0 kts 321°